Temp
-8 -8 -7 -7 -7 -7 -8 -7 -7 -8 -6 -6 -6 -6 -7 -7 -7 -7 -6 -7 -7 -8 -8 -8 -8 -8 -8 -8 -7 -6 -6 -7 -6 -6 -5 -5 -5 -5 -5 -6 -5 -5 -5 -6
-8 -8 -7 -7 -6 -7 -7 -7 -8 -8 -7 -6 -6 -6 -6 -7 -7 -7 -6 -7 -7 -8 -7 -8 -8 -8 -8 -7 -7 -7 -7 -6 -6 -6 -5 -5 -4 -5 -5 -5 -5 -5 -6 -6
-8 -8 -8 -7 -7 -7 -7 -8 -8 -8 -7 -6 -6 -6 -6 -6 -7 -7 -7 -6 -7 -7 -7 -8 -8 -7 -7 -7 -7 -7 -6 -6 -6 -6 -5 -5 -5 -5 -5 -5 -5 -5 -5 -6
-8 -8 -8 -7 -7 -7 -7 -7 -8 -7 -7 -7 -7 -6 -5 -5 -6 -6 -7 -7 -6 -6 -7 -7 -8 -7 -7 -7 -6 -6 -6 -6 -6 -5 -5 -5 -5 -5 -5 -5 -5 -5 -6 -6
-8 -8 -7 -7 -7 -7 -7 -6 -7 -6 -6 -6 -6 -6 -5 -5 -6 -5 -5 -6 -7 -6 -6 -7 -7 -7 -7 -6 -6 -6 -6 -6 -5 -5 -5 -5 -5 -6 -6 -5 -5 -5 -5 -6
-8 -8 -7 -7 -7 -7 -7 -7 -6 -5 -6 -7 -6 -6 -6 -6 -6 -6 -6 -6 -6 -7 -6 -6 -6 -6 -7 -6 -6 -6 -6 -6 -6 -6 -6 -6 -6 -6 -6 -5 -6 -6 -6 -6
-9 -8 -8 -7 -7 -7 -7 -7 -7 -7 -7 -7 -6 -6 -6 -5 -5 -5 -6 -6 -7 -7 -7 -6 -6 -6 -6 -6 -6 -6 -6 -6 -6 -6 -6 -6 -6 -6 -6 -6 -6 -6 -6 -6
-8 -9 -8 -8 -8 -7 -6 -7 -7 -7 -7 -7 -6 -6 -7 -5 -6 -5 -5 -6 -6 -6 -6 -6 -6 -6 -6 -6 -6 -5 -5 -5 -5 -6 -6 -6 -6 -6 -6 -6 -6 -6 -6 -6
-8 -9 -8 -8 -8 -7 -7 -7 -7 -7 -7 -6 -6 -6 -6 -6 -6 -6 -5 -5 -5 -5 -5 -6 -6 -6 -6 -6 -6 -5 -6 -6 -5 -5 -5 -5 -6 -6 -6 -6 -6 -6 -6 -6
-8 -9 -9 -8 -8 -7 -7 -7 -7 -8 -7 -6 -6 -6 -6 -6 -5 -5 -5 -5 -5 -6 -6 -6 -6 -6 -6 -6 -6 -6 -6 -6 -6 -5 -5 -5 -5 -6 -6 -6 -6 -6 -6 -6
-8 -8 -8 -9 -8 -8 -7 -7 -7 -7 -7 -7 -6 -6 -6 -6 -5 -5 -5 -5 -5 -5 -5 -6 -6 -6 -5 -6 -6 -6 -6 -6 -6 -5 -6 -6 -6 -6 -6 -6 -6 -6 -6 -7
-8 -8 -9 -8 -8 -8 -7 -7 -7 -7 -7 -7 -7 -6 -6 -6 -6 -5 -5 -5 -5 -5 -4 -6 -6 -6 -6 -7 -6 -6 -6 -6 -6 -5 -5 -6 -6 -6 -7 -7 -7 -7 -7 -7
-9 -8 -9 -9 -9 -8 -7 -7 -6 -6 -7 -6 -7 -7 -7 -6 -6 -6 -5 -6 -6 -5 -5 -6 -6 -7 -6 -6 -6 -7 -6 -6 -6 -6 -6 -6 -6 -6 -7 -7 -7 -7 -8 -8
-9 -9 -9 -9 -8 -8 -8 -7 -7 -7 -6 -6 -7 -7 -7 -7 -6 -6 -6 -6 -6 -6 -6 -6 -7 -7 -6 -7 -7 -7 -7 -7 -7 -6 -6 -7 -7 -7 -7 -7 -7 -7 -8 -8
-9 -9 -9 -9 -8 -8 -8 -7 -7 -6 -7 -7 -7 -7 -7 -7 -6 -6 -6 -6 -6 -6 -6 -6 -6 -6 -6 -7 -7 -7 -6 -6 -6 -6 -6 -6 -6 -7 -6 -7 -7 -8 -8 -6
-9 -9 -9 -8 -8 -8 -8 -7 -7 -6 -7 -7 -7 -7 -7 -7 -7 -6 -6 -6 -6 -6 -6 -6 -6 -6 -6 -6 -6 -6 -6 -6 -7 -7 -7 -7 -7 -6 -7 -7 -8 -8 -8 -8
-9 -9 -9 -9 -9 -9 -9 -8 -8 -7 -7 -7 -7 -7 -7 -7 -7 -7 -7 -7 -6 -6 -6 -6 -5 -6 -6 -6 -6 -6 -6 -7 -7 -7 -7 -7 -7 -7 -8 -7 -7 -7 -8 -7
-9 -9 -9 -9 -9 -9 -9 -8 -8 -8 -7 -7 -7 -7 -7 -7 -7 -7 -7 -7 -7 -7 -6 -6 -6 -6 -6 -6 -6 -6 -6 -6 -6 -7 -7 -7 -7 -7 -7 -7 -7 -7 -7 -7
-9 -9 -9 -9 -9 -9 -9 -8 -8 -7 -7 -7 -7 -7 -7 -7 -7 -7 -7 -7 -7 -7 -7 -6 -6 -6 -6 -6 -6 -6 -6 -6 -6 -6 -6 -7 -7 -7 -7 -7 -7 -7 -7 -7
-9 -9 -10 -10 -9 -9 -8 -8 -7 -7 -7 -7 -7 -7 -7 -7 -7 -7 -7 -7 -7 -7 -7 -6 -7 -7 -6 -6 -6 -5 -5 -5 -5 -6 -6 -7 -7 -7 -7 -7 -7 -7 -7 -7
-9 -10 -10 -10 -10 -9 -8 -8 -7 -8 -7 -8 -7 -7 -7 -7 -7 -6 -7 -7 -7 -8 -7 -7 -7 -7 -6 -6 -6 -6 -6 -6 -6 -6 -6 -7 -7 -7 -7 -7 -7 -7 -7 -7
-10 -9 -10 -10 -9 -8 -8 -7 -7 -8 -8 -7 -7 -7 -7 -8 -7 -7 -7 -7 -8 -8 -7 -7 -7 -7 -7 -6 -6 -6 -6 -6 -6 -6 -6 -7 -7 -7 -7 -7 -8 -8 -8 -8
-10 -9 -9 -9 -9 -8 -8 -8 -8 -7 -8 -8 -8 -8 -8 -7 -7 -7 -7 -8 -9 -9 -8 -7 -7 -7 -7 -6 -6 -6 -6 -6 -6 -6 -7 -7 -7 -7 -7 -7 -7 -7 -7 -7
-9 -9 -9 -9 -9 -8 -8 -8 -8 -7 -8 -8 -8 -8 -7 -7 -7 -7 -7 -9 -10 -9 -8 -7 -8 -7 -7 -6 -6 -6 -6 -6 -6 -7 -7 -7 -7 -7 -7 -7 -7 -7 -7 -7
-9 -9 -9 -9 -9 -9 -9 -8 -8 -7 -7 -7 -7 -7 -7 -7 -7 -7 -7 -9 -9 -8 -8 -8 -8 -7 -7 -6 -6 -6 -6 -6 -6 -6 -6 -6 -7 -7 -7 -7 -7 -7 -7 -7
-9 -9 -9 -9 -9 -9 -9 -9 -9 -8 -7 -7 -7 -7 -6 -6 -7 -7 -7 -8 -7 -7 -8 -8 -8 -7 -6 -6 -7 -6 -6 -6 -6 -6 -6 -6 -7 -7 -7 -7 -7 -7 -7 -7
Height
5902 5904 5905 5903 5903 5902 5903 5903 5902 5900 5899 5901 5901 5901 5900 5900 5900 5897 5896 5894 5895 5899 5903 5904 5906 5907 5910 5914 5918 5920 5922 5924 5925 5926 5929 5930 5929 5928 5928 5929 5931 5931 5930 5930
5904 5904 5907 5906 5905 5904 5905 5904 5903 5901 5899 5902 5903 5904 5903 5903 5902 5901 5900 5898 5900 5900 5901 5906 5908 5911 5912 5915 5918 5921 5924 5926 5926 5928 5930 5930 5929 5928 5928 5929 5930 5931 5931 5930
5903 5905 5905 5907 5906 5905 5904 5904 5904 5903 5901 5902 5905 5904 5904 5905 5903 5902 5903 5901 5902 5902 5903 5906 5909 5912 5914 5917 5919 5921 5925 5926 5927 5928 5929 5929 5928 5928 5929 5930 5930 5930 5931 5930
5903 5904 5906 5906 5907 5907 5904 5905 5906 5904 5904 5904 5906 5906 5906 5906 5905 5903 5903 5904 5905 5906 5906 5907 5910 5911 5916 5918 5921 5922 5924 5926 5926 5927 5927 5928 5928 5929 5930 5930 5930 5929 5929 5929
5903 5904 5906 5906 5908 5908 5909 5907 5907 5906 5905 5905 5907 5908 5908 5907 5905 5905 5905 5905 5906 5908 5909 5910 5910 5912 5915 5918 5920 5923 5923 5925 5926 5926 5927 5928 5927 5928 5928 5929 5929 5928 5927 5928
5902 5905 5907 5909 5909 5910 5909 5908 5907 5907 5908 5908 5907 5910 5911 5910 5907 5905 5905 5904 5906 5907 5909 5911 5914 5915 5917 5919 5920 5921 5923 5925 5925 5926 5927 5927 5927 5927 5927 5927 5927 5927 5927 5927
5902 5904 5908 5909 5910 5910 5909 5909 5911 5910 5911 5911 5910 5912 5912 5912 5910 5907 5905 5904 5904 5905 5909 5911 5913 5916 5918 5919 5920 5921 5923 5925 5925 5926 5928 5927 5926 5926 5927 5926 5925 5925 5925 5926
5900 5904 5907 5908 5909 5909 5910 5910 5911 5911 5911 5912 5912 5913 5913 5913 5911 5907 5905 5905 5904 5907 5906 5908 5910 5913 5917 5919 5920 5920 5922 5924 5925 5925 5927 5926 5926 5925 5925 5924 5923 5923 5924 5924
5899 5902 5904 5906 5908 5910 5910 5910 5911 5911 5911 5914 5914 5913 5912 5912 5912 5910 5908 5906 5906 5906 5906 5907 5908 5910 5912 5917 5919 5920 5922 5923 5923 5924 5925 5925 5924 5924 5922 5922 5922 5921 5921 5921
5897 5899 5902 5903 5906 5909 5909 5911 5911 5911 5914 5915 5914 5913 5913 5912 5913 5913 5909 5908 5906 5903 5901 5900 5901 5904 5907 5912 5915 5918 5919 5922 5922 5922 5923 5923 5922 5922 5920 5918 5919 5919 5919 5918
5894 5897 5901 5902 5905 5907 5909 5910 5910 5911 5912 5914 5914 5914 5913 5913 5912 5912 5910 5907 5904 5900 5896 5896 5897 5902 5905 5908 5911 5915 5915 5917 5920 5920 5921 5921 5921 5919 5918 5916 5916 5915 5916 5916
5892 5894 5897 5901 5902 5904 5906 5908 5909 5911 5913 5912 5913 5915 5914 5913 5911 5909 5907 5904 5902 5898 5894 5895 5897 5901 5905 5906 5908 5910 5912 5914 5916 5917 5917 5917 5918 5918 5916 5914 5913 5913 5912 5911
5890 5891 5895 5897 5900 5901 5903 5906 5907 5908 5910 5911 5912 5915 5914 5913 5910 5909 5905 5903 5901 5899 5897 5898 5898 5900 5903 5905 5907 5909 5910 5912 5913 5914 5914 5914 5914 5915 5914 5912 5911 5911 5910 5907
5888 5890 5894 5896 5897 5898 5900 5902 5904 5905 5908 5910 5911 5913 5913 5912 5910 5908 5905 5902 5901 5900 5902 5901 5902 5903 5903 5904 5907 5909 5910 5911 5912 5912 5912 5912 5912 5911 5911 5910 5908 5906 5904 5901
5887 5889 5891 5892 5894 5894 5896 5898 5899 5902 5905 5906 5909 5910 5910 5910 5908 5907 5905 5902 5902 5901 5903 5902 5904 5904 5904 5905 5906 5906 5907 5907 5908 5908 5908 5909 5909 5908 5906 5905 5904 5903 5899 5887
5884 5886 5887 5889 5890 5890 5890 5892 5893 5896 5899 5903 5905 5907 5908 5908 5907 5905 5903 5902 5902 5902 5903 5902 5902 5903 5901 5902 5904 5905 5904 5903 5903 5903 5904 5904 5902 5903 5903 5902 5899 5896 5888 5888
5880 5881 5883 5884 5885 5885 5886 5888 5890 5892 5895 5900 5902 5905 5905 5904 5904 5902 5901 5900 5901 5900 5902 5901 5899 5899 5899 5899 5902 5902 5900 5899 5899 5900 5900 5900 5901 5900 5898 5897 5895 5892 5889 5887
5874 5877 5879 5880 5881 5881 5884 5885 5886 5889 5892 5896 5899 5901 5901 5901 5901 5900 5898 5897 5897 5897 5898 5899 5899 5898 5898 5898 5898 5899 5898 5897 5897 5896 5897 5896 5897 5896 5894 5893 5892 5890 5887 5886
5868 5871 5872 5873 5875 5877 5879 5881 5882 5886 5890 5892 5894 5896 5896 5897 5897 5897 5896 5895 5894 5895 5896 5896 5896 5896 5896 5896 5897 5896 5895 5893 5893 5894 5895 5894 5892 5891 5891 5890 5888 5886 5885 5884
5862 5865 5867 5867 5868 5869 5875 5878 5878 5881 5885 5888 5890 5891 5891 5891 5894 5893 5892 5891 5891 5891 5892 5892 5893 5894 5894 5893 5893 5892 5890 5890 5890 5890 5891 5891 5891 5890 5889 5888 5887 5886 5884 5882
5856 5858 5861 5863 5864 5865 5870 5873 5874 5875 5884 5884 5885 5886 5886 5888 5889 5887 5886 5887 5886 5888 5888 5889 5890 5891 5890 5890 5890 5888 5888 5888 5887 5888 5890 5890 5890 5889 5889 5887 5886 5885 5884 5882
5850 5852 5855 5858 5859 5864 5867 5869 5871 5875 5876 5878 5879 5882 5883 5884 5884 5882 5880 5882 5881 5882 5885 5887 5889 5889 5890 5888 5886 5886 5887 5885 5887 5889 5889 5889 5889 5888 5887 5886 5886 5884 5883 5880
5840 5845 5850 5853 5856 5861 5864 5865 5866 5869 5871 5873 5876 5876 5878 5879 5878 5877 5876 5877 5877 5878 5881 5884 5886 5886 5886 5885 5885 5885 5886 5886 5887 5888 5889 5889 5888 5887 5886 5885 5884 5883 5880 5878
5834 5839 5842 5848 5852 5856 5859 5861 5861 5865 5867 5867 5869 5869 5870 5870 5871 5871 5872 5872 5871 5873 5875 5879 5882 5884 5884 5884 5884 5885 5885 5887 5888 5889 5889 5888 5888 5887 5886 5885 5884 5882 5880 5878
5829 5834 5839 5842 5845 5850 5853 5856 5857 5859 5859 5861 5860 5860 5863 5864 5865 5867 5868 5868 5868 5869 5872 5877 5879 5881 5882 5883 5884 5884 5885 5887 5888 5888 5889 5889 5888 5887 5887 5886 5883 5881 5880 5878
5822 5829 5833 5837 5842 5845 5848 5850 5851 5852 5853 5854 5854 5855 5857 5858 5861 5863 5864 5866 5868 5870 5872 5874 5877 5878 5880 5881 5882 5884 5886 5887 5888 5888 5889 5888 5888 5888 5887 5886 5885 5883 5881 5879
Wind_Speed
5 3 18 20 19 16 11 7 2 14 5 6 7 7 9 8 4 5 11 11 16 16 15 16 18 19 20 18 14 12 11 11 10 8 8 8 7 5 6 4 3 2 1 2
10 5 6 14 14 19 16 20 17 12 7 8 6 8 9 8 11 10 9 13 16 21 19 19 15 13 16 18 13 9 10 11 11 10 8 7 7 6 4 3 3 2 2 2
12 8 5 11 17 21 19 24 21 19 10 8 7 5 8 6 9 8 9 7 11 16 19 18 17 16 13 11 8 8 9 9 10 11 10 7 5 5 2 1 1 1 1 4
12 9 7 14 16 18 18 21 17 18 13 8 7 3 4 4 5 7 6 8 11 15 16 18 12 10 8 6 8 9 11 10 10 10 9 6 4 3 1 2 2 1 3 5
16 14 5 12 12 13 15 14 13 8 14 12 11 10 9 9 7 2 2 8 8 6 10 14 16 15 12 5 5 6 6 7 8 8 7 6 4 2 2 2 3 4 5 7
17 16 9 14 4 10 12 13 11 14 14 15 13 11 8 8 8 5 5 6 9 12 8 9 14 16 15 8 6 5 6 5 5 5 5 6 5 5 5 6 6 5 5 6
16 18 13 7 10 8 11 14 21 23 18 14 13 13 14 14 13 9 5 14 16 18 16 13 14 17 14 11 10 8 7 6 5 4 6 5 5 6 7 9 9 8 8 7
21 15 15 11 11 10 11 13 12 9 7 13 11 8 7 10 18 15 9 3 16 14 21 20 20 18 17 13 10 10 8 8 7 5 7 7 5 6 7 10 11 10 9 11
23 13 14 14 13 10 12 14 13 6 3 9 11 9 9 8 14 10 12 8 4 11 22 20 22 22 21 16 12 12 10 11 10 8 9 8 7 6 7 9 11 12 13 14
23 22 20 20 17 11 7 17 10 5 6 4 10 13 11 7 11 10 13 9 5 8 15 19 25 27 24 20 16 13 12 12 13 12 11 11 10 10 11 12 13 13 14 16
21 26 19 19 19 13 10 11 9 8 4 3 5 7 9 10 15 14 11 11 7 6 11 21 21 25 19 17 16 16 13 12 16 15 13 13 13 12 13 15 15 16 16 17
19 28 23 14 18 19 13 17 12 9 3 1 5 5 7 11 11 18 14 12 10 7 2 12 14 21 21 17 15 15 13 15 16 15 13 13 17 16 14 16 17 18 19 20
12 29 24 13 17 23 22 19 17 13 10 4 4 3 8 8 15 20 12 14 10 12 7 2 9 17 12 11 13 14 15 16 16 17 14 16 16 17 16 18 19 19 20 22
18 14 20 22 13 15 22 21 25 23 17 9 4 5 7 10 12 12 9 12 8 10 6 6 9 13 12 10 10 12 14 15 16 17 16 16 17 19 19 19 21 21 21 23
14 19 16 17 27 25 23 22 26 24 21 18 6 9 11 11 10 7 9 10 7 7 7 2 4 8 11 12 13 14 16 18 19 18 19 19 21 23 23 23 23 23 26 32
17 16 16 14 21 19 18 24 23 23 25 20 8 13 15 15 15 16 10 10 5 5 6 4 1 3 7 6 7 10 12 14 18 19 21 21 21 21 20 23 24 27 27 27
23 21 21 17 19 21 24 25 26 24 23 15 11 13 16 17 11 4 10 12 7 5 4 6 5 6 4 4 6 10 12 15 16 17 17 19 19 18 18 17 19 24 26 24
22 22 22 25 27 28 24 24 25 21 22 15 17 17 17 18 15 9 10 10 11 8 9 7 8 10 7 6 9 9 9 10 13 16 17 19 18 18 18 18 19 20 20 18
25 26 28 26 26 28 25 12 16 20 19 21 21 22 21 24 20 16 16 14 8 5 7 10 12 9 8 8 7 5 5 6 7 8 11 11 12 12 12 12 12 13 14 15
28 26 24 20 24 29 25 15 13 26 26 22 21 20 19 23 23 20 20 12 8 7 9 8 11 11 10 7 2 2 2 0 3 5 4 2 3 5 6 7 7 9 12 13
32 28 24 18 20 22 20 19 16 22 25 20 22 28 27 29 20 22 21 19 14 10 10 8 8 10 10 4 1 2 3 2 4 8 5 2 2 2 3 4 7 8 11 12
34 37 27 26 26 16 9 16 15 14 26 27 28 27 23 23 20 24 15 16 15 15 13 7 8 10 9 4 1 2 2 4 4 1 2 2 4 4 4 5 6 8 8 10
42 34 29 27 25 14 12 13 10 11 18 22 21 20 23 25 24 21 22 21 19 21 18 11 8 11 9 3 2 1 2 1 1 2 1 4 5 5 5 6 7 8 10 10
30 32 31 29 27 21 18 22 24 19 19 24 20 23 24 21 22 20 18 19 26 27 29 23 11 13 10 6 4 3 1 1 3 3 3 4 4 5 5 7 8 9 10 12
31 32 32 31 30 24 25 25 25 18 18 18 21 21 20 23 21 18 15 12 14 14 12 12 12 14 11 8 7 4 4 3 4 3 2 2 4 5 6 7 8 9 10 11
33 32 34 31 20 16 16 20 20 20 18 17 19 19 22 23 20 21 16 14 14 10 8 10 14 15 12 10 7 7 6 6 5 3 1 2 3 5 5 6 7 7 9 10
Wind_Direction
152 159 93 85 72 69 111 67 8 25 228 164 121 101 94 91 81 87 122 119 116 118 118 113 114 124 129 127 122 131 152 167 170 179 173 168 137 131 99 100 116 131 185 287
168 211 129 105 96 83 90 68 50 52 118 149 118 107 95 114 110 93 94 124 133 136 131 120 119 132 136 132 147 162 174 174 177 170 177 171 126 102 87 112 138 122 114 178
194 205 141 121 104 88 83 66 50 63 93 116 107 97 114 118 129 130 103 89 144 142 131 129 128 133 143 163 178 183 184 189 182 171 180 167 112 88 68 7 30 39 224 201
186 183 155 116 109 101 80 68 59 56 92 131 117 91 81 80 95 127 142 128 142 140 134 138 147 145 145 164 172 184 180 183 181 173 176 158 149 137 198 226 245 293 275 266
201 193 192 136 116 103 92 75 45 72 88 101 97 94 59 47 31 61 140 169 178 170 147 151 169 181 175 178 190 182 161 182 190 179 174 178 177 227 257 251 257 292 305 279
200 208 189 143 145 104 85 76 38 104 83 82 87 71 62 30 5 347 243 216 197 215 202 166 182 193 198 209 218 210 206 192 196 195 202 197 208 228 251 267 268 286 307 295
202 209 206 186 145 128 98 81 100 87 72 68 107 88 52 45 38 31 262 235 216 206 217 214 198 210 217 231 233 222 230 231 200 201 223 214 226 261 287 291 283 280 291 300
202 207 204 194 179 167 145 124 121 85 56 45 102 82 47 55 37 40 25 275 238 224 215 215 204 203 217 225 233 232 225 228 237 222 231 239 236 252 278 286 287 284 277 278
205 206 209 212 198 173 166 149 154 156 116 69 62 56 64 87 33 51 40 38 234 222 220 224 218 207 216 222 235 225 232 239 232 229 238 242 246 253 270 280 282 287 284 278
202 209 210 206 217 207 164 169 158 151 131 111 84 48 33 46 26 43 45 11 326 274 241 221 224 213 212 224 233 227 227 242 242 233 240 243 240 250 261 270 275 273 274 278
204 211 201 200 215 227 220 184 192 183 127 17 26 34 46 20 13 5 13 7 342 304 259 216 213 214 217 226 235 233 224 243 246 244 248 260 261 258 264 269 272 274 274 280
206 210 204 200 209 208 231 223 211 209 210 297 356 44 345 6 18 5 1 358 356 10 54 197 194 208 220 221 235 241 243 247 253 255 259 271 273 264 262 261 265 271 277 281
215 206 203 197 227 233 235 236 223 225 249 241 315 29 331 349 343 351 356 350 353 29 50 104 196 191 201 207 233 253 261 261 264 268 261 264 266 269 266 263 266 273 280 285
214 202 204 207 236 241 244 246 240 243 232 245 215 304 293 337 347 347 356 359 349 5 38 117 177 210 208 216 244 261 276 283 287 288 282 278 282 285 287 288 284 288 287 283
226 229 217 222 231 244 247 248 249 244 239 240 242 241 284 312 323 352 350 357 347 356 348 77 157 194 208 223 244 258 266 269 269 273 277 282 291 290 273 287 290 288 283 281
239 243 237 241 238 238 245 250 257 243 234 239 246 269 292 298 289 302 299 330 347 310 329 309 166 182 160 174 216 240 255 267 272 274 280 285 283 287 279 281 284 291 304 312
242 241 256 260 267 246 244 242 249 242 234 248 247 249 286 282 284 269 320 314 298 286 309 314 261 260 232 216 250 261 263 266 271 276 279 281 280 282 289 299 297 302 306 310
237 244 252 260 264 246 248 246 244 230 231 237 238 264 274 267 282 266 295 297 315 272 285 291 242 231 250 279 284 276 266 259 262 263 261 265 271 277 284 288 291 293 304 316
239 244 252 254 257 251 241 228 244 219 223 234 245 261 274 271 269 265 269 273 261 237 260 297 282 267 277 280 266 258 268 268 252 246 249 259 270 277 282 291 299 308 315 321
237 244 247 247 255 253 243 249 245 220 227 227 242 249 271 276 273 259 270 255 221 232 249 258 264 265 284 268 261 285 61 323 250 255 261 245 269 292 303 308 311 316 325 332
234 233 238 238 254 255 236 237 250 224 223 234 243 250 268 296 266 277 275 251 223 239 256 271 256 278 290 278 342 51 51 41 67 94 81 69 61 22 333 313 304 312 322 325
226 229 222 232 245 258 246 225 237 233 227 237 249 261 268 264 261 278 272 259 232 245 261 286 268 277 278 263 161 82 358 71 102 72 95 42 9 355 336 317 327 329 327 335
227 237 225 238 255 233 227 239 231 219 225 237 248 256 244 255 257 257 262 258 243 246 247 243 268 285 284 242 173 157 1 100 61 22 2 342 349 353 335 336 349 348 352 345
231 236 231 243 247 243 229 244 249 246 240 247 253 248 247 241 236 241 253 247 243 241 252 242 276 278 272 226 194 199 262 232 253 276 311 335 351 357 344 350 350 349 349 347
224 225 229 241 253 248 249 254 263 256 254 251 242 239 235 232 235 226 215 218 236 230 211 229 257 262 242 215 207 202 227 233 238 262 310 353 12 9 359 2 359 355 348 350
223 226 233 244 256 241 236 240 246 252 255 244 238 234 233 230 226 212 205 205 220 219 215 234 245 243 227 210 213 222 227 221 219 223 270 349 356 5 17 14 7 357 357 359